Regional Weather Roundup
Issued by NWS

Home | Current Version | Previous Version | Text Only | Print | Product List | Glossary On
Versions: 1 2 3 4 5 6 7 8 9 10 11 12 13 14 15 16 17 18 19 20 21 22 23 24 25 26 27 28 29 30 31 32 33 34 35 36 37 38 39 40 41 42 43 44 45 46 47 48 49 50
000
ASUS45 KPSR 310410
RWRAZ

ARIZONA REGIONAL HOURLY WEATHER ROUNDUP
NATIONAL WEATHER SERVICE PHOENIX AZ
900 PM MST SAT AUG 30 2014

NOTE: FAIR INDICATES FEW OR NO CLOUDS BELOW 12,000 FEET WITH NO
SIGNIFICANT WEATHER AND/OR OBSTRUCTIONS TO VISIBILITY.

AZZ001>003-036-310500-
NORTHWEST ARIZONA

CITY           SKY/WX    TMP DP  RH WIND       PRES   REMARKS
BULLHEAD CITY  MOCLDY   102  36  10 S12       29.64R
KINGMAN        PTCLDY    82  34  17 SE10      29.89R
$$

AZZ004>008-015-016-018-310500-
NORTH CENTRAL ARIZONA

CITY           SKY/WX    TMP DP  RH WIND       PRES   REMARKS
GRAND CANYON     N/A    N/A N/A N/A MISG        N/A
WILLIAMS       PTCLDY    66  39  37 S8        30.24S
PRESCOTT       CLEAR     71  43  36 S6        30.06R
FLAGSTAFF      PTCLDY    63  41  44 SW6       30.22R
PAYSON         CLEAR     77  37  24 CALM      30.09S
PAGE           PTCLDY    86  33  15 SW5       29.92R
$$

AZZ009>014-017-310500-
NORTHEAST ARIZONA

CITY           SKY/WX    TMP DP  RH WIND       PRES   REMARKS
WINSLOW        PTCLDY    76  45  33 SW9       30.04R
SAINT JOHNS    CLEAR     75  40  28 SW9       30.09R
WINDOW ROCK    PTCLDY    65  31  28 CALM      30.17R
SHOW LOW       CLEAR     64  37  36 S9        30.19S
$$

AZZ023-310500-
GREATER PHOENIX AREA

CITY           SKY/WX    TMP DP  RH WIND       PRES   REMARKS
PHOENIX        CLEAR    100  42  13 CALM      29.71R
BUCKEYE          N/A     90  50  25 CALM      29.71S
LUKE AFB       NOT AVBL
DEER VALLEY    CLEAR     94  40  15 E6        29.74R
SCOTTSDALE     CLEAR     96  45  17 N5        29.76R
MESA-GATEWAY   CLEAR     95  39  14 N3        29.76R
CHANDLER       CLEAR     95  43  16 W8        29.73R
$$

AZZ027-028-310500-
SOUTHWEST MARICOPA COUNTY AND PINAL COUNTY

CITY           SKY/WX    TMP DP  RH WIND       PRES   REMARKS
CASA GRANDE    CLEAR     93  39  15 CALM      29.77R
$$

AZZ503-504-507>509-310500-
SOUTHEAST ARIZONA

CITY           SKY/WX    TMP DP  RH WIND       PRES   REMARKS
TUCSON         CLEAR     92  41  17 S5        29.89R
DAVIS-MONTHAN  CLEAR     87  43  21 SW6       29.87R
NOGALES        CLEAR     74  51  44 E5        30.00R
SIERRA VISTA   PTCLDY    79  47  32 SW8       30.06R
DOUGLAS        CLEAR     77  56  48 S3        30.02R
SAFFORD        CLEAR     84  46  26 NW6       29.89R
$$

AZZ020-021-025-026-031-310500-
SOUTHWEST ARIZONA

CITY           SKY/WX    TMP DP  RH WIND       PRES   REMARKS
YUMA           CLEAR     96  45  17 S8        29.66R
$$

CAZ031-033-041-043-047-048-061-310500-
SOUTHERN CALIFORNIA

CITY           SKY/WX    TMP DP  RH WIND       PRES   REMARKS
DOWNTOWN L.A.  CLEAR     74  64  71 W3        29.76R
L.A. AIRPORT   CLEAR     71  65  81 SW6       29.77R
SAN DIEGO      PTCLDY    72  66  81 W5        29.79R
BURBANK        CLEAR     79  60  52 SE6       29.77R
ONTARIO        PTCLDY    81  59  47 W7        29.79R
RIVERSIDE      CLEAR     83  55  38 CALM      29.78R
PALM SPRINGS   CLEAR    102  43  13 NW15      29.67R
IMPERIAL       CLEAR     98  48  18 SW9       29.62R
BLYTHE         CLEAR    101  43  13 S17       29.64R
NEEDLES        PTCLDY   102  32   8 SW12      29.66R
$$

NVZ020-UTZ003-310500-
SOUTHERN NEVADA-UTAH

CITY           SKY/WX    TMP DP  RH WIND       PRES   REMARKS
LAS VEGAS      MOCLDY    98  26   7 S12       29.69R
SALT LAKE CITY CLOUDY    73  46  38 W3        29.81R
$$

NMZ009-TXZ055-310500-
NEW MEXICO-WEST TEXAS

CITY           SKY/WX    TMP DP  RH WIND       PRES   REMARKS
ALBUQUERQUE    PTCLDY    75  45  34 SE7       30.05R
EL PASO        CLEAR     84  46  26 S5        30.00R
$$


........................KEY........................
SKY/WX - SKY CONDITION/WEATHER
TMP    - TEMPERATURE IN FAHRENHEIT
DP     - DEW POINT IN FAHRENHEIT
RH     - RELATIVE HUMIDITY IN PERCENT
WIND   - DIRECTION AND SPEED IN MILES PER HOUR (MPH)
VRB    - VARIABLE WIND DIRECTION
PRES   - MEAN SEA LEVEL PRESSURE IN INCHES OF MERCURY
         F - FALLING PRESSURE   R - RISING PRESSURE
         S - STEADY PRESSURE
VSB    - VISIBILITY IN MILES
HX     - HEAT INDEX IN FAHRENHEIT
WCI    - WIND CHILL INDEX IN FAHRENHEIT
TC     - TEMPERATURE IN CELSIUS WHICH IS ALSO KNOWN AS
         TEMPERATURE IN CENTIGRADE
AFB    - AIR FORCE BASE
         LUKE AFB IS LUKE AIR FORCE BASE
         DAVIS-MONTHAN IS DAVIS-MONTHAN AIR FORCE BASE
NAS    - NAVAL AIR STATION
         EL CENTRO NAS IS EL CENTRO NAVAL AIR STATION
N/A    - NOT AVAILABLE


USA.gov is the U.S. government's official web portal to all federal, state and local government web resources and services.